Location: Dover
(48.8500°N, 53.9833°W)
Time: 06:36:33
(UTC+00:00)

Cosmos 2221 Rocket - Pass Details

Date: 14 November 2025
Orbit: 614 x 642 km, 82.5° (Epoch: 10 December)

Event Time Altitude Azimuth Distance (km) Brightness Sun altitude
Rises 20:31:15 0° 349° (N) 2,949 6.9 -6.0°
Reaches altitude 10° 20:33:31 10° 349° (N) 2,032 6.1 -6.4°
Maximum altitude 20:38:02 84° 263° (W) 642 3.7 -7.1°
Drops below altitude 10° 20:42:28 10° 175° (S) 1,997 6.4 -7.8°
Sets 20:44:40 0° 174° (S) 2,895 7.2 -8.1°
